Location: Vesunti
(61.5000°N, 22.8333°E)
Time: 22:40:32
(UTC+00:00)

NOSS 7 (H) - Pass Details

Date: 17 February 2020
Orbit: 377 x 1786 km, 63.3° (Epoch: 05 April)

Event Time Altitude Azimuth Distance (km) Brightness Sun altitude
Exits shadow 03:47:41 58° 262° (W) 467 4.1 -17.2°
Maximum altitude 03:48:12 84° 340° (NNW) 407 4.0 -17.2°
Drops below altitude 10° 03:51:33 10° 70° (ENE) 1,577 8.4 -16.8°
Sets 03:53:52 0° 72° (ENE) 2,590 9.8 -16.5°
